www.pogodaiklimat.ru

Погода и климат >> Архив погоды >> Россия >> Магаданская область >> Сеймчан


АРХИВ ПОГОДЫ в Сеймчане

Время (UTC), дата Ветер
(напр.,м/с)
 
Видим.   Явления Облачность Т
(С)
Тd
(С)
f
(%)
Тe
(С)
Тes
(С)
Комфортность P
(гПа)
Po
(гПа)
Тmin
(С)
Tmax
(С)
R
(мм)
R24
(мм)
S
(см)
00 13.06 Ю 2 50 км 3/1 1000 м
[Cu hum Ci fib]
+18.7 +3.7 37 +19 +29 1011.5 987.0
03 13.06 Ю 3 50 км 6/4 1000 м
[Cu hum Ci fib]
+22.0 +2.5 28 +22 +28 комфорт 1010.2 986.0
06 13.06 Ю 3 50 км 4/4 1000 м
[Cu hum]
+22.3 +2.0 26 +22 +25 комфорт 1009.4 985.3
09 13.06 ЮЗ 3 50 км 9/3 1000 м
[Sc diur, vesp Ci]
+19.3 +2.9 34 +20 +20 1010.3 985.9 +22.8
12 13.06 Ю 2 50 км 8/1 1000 м
[Sc Ci fib]
+13.0 +4.6 57 +12 +12 1011.4 986.5
15 13.06 СЗ 1 50 км 8/0
[Ac trans Ci fib]
+5.0 +3.4 89 +4 +4 1012.8 987.1
18 13.06 СЗ 1 50 км 9/0
[Ac trans Ci fib]
+5.9 +4.3 89 +5 +5 1013.0 987.4
21 13.06 Ю 3 50 км 9/0
[Ci fib]
+15.4 +2.8 43 +15 +18 1012.3 987.5 +3.1
00 14.06 Ю 4 50 км 6/0
[Ci fib]
+19.5 +2.8 33 +20 +27 1011.1 986.7
03 14.06 ЮЗ 4
{10}
50 км 1/0
[Ci fib]
+22.9 -1.1 20 +22 +30 комфорт 1009.9 985.8
06 14.06 Ю 3 50 км ясно +23.8 -4.1 15 +22 +28 комфорт 1009.0 985.0
09 14.06 Ю 2 50 км ясно +22.7 -2.1 19 +21 +23 комфорт 1009.5 985.4 +23.9
12 14.06 штиль 0 50 км 1/0
[Ci fib]
+8.7 +5.7 81 +8 +8 1011.7 986.3
15 14.06 З 1 50 км ясно +2.6 +1.7 94 +1 +1 1013.9 987.9
18 14.06 штиль 0 50 км ясно +4.4 +2.3 86 +3 +4 1015.0 989.2
21 14.06 штиль 0 50 км ясно +16.3 +4.6 46 +16 +23 1015.0 990.2 +1.0
00 15.06 ЮВ 1 50 км ясно +22.2 +3.2 29 +22 +36 комфорт 1014.1 989.9
03 15.06 Ю 3 50 км 3/3 1000 м
[Cu hum]
+24.9 +0.7 20 +23 +31 комфорт 1012.9 988.9
06 15.06 В 1 50 км 3/3 1000 м
[Cu hum]
+26.0 +0.1 18 +24 +30 комфорт 1012.0 988.1
09 15.06 ЮЗ 1 50 км 5/3 1000 м
[Cu Sc Ci fib]
+23.8 +1.9 24 +23 +24 комфорт 1012.2 988.1 +26.0
12 15.06 штиль 0 50 км 4/1 1000 м
[Sc diur, vesp Ci fib]
+10.6 +8.5 87 +10 +10 1014.0 988.8
15 15.06 ЮЗ 1 50 км 4/0
[Ac trans Ci fib]
+5.1 +3.9 92 +4 +4 1015.5 989.7
18 15.06 ЮЗ 1 50 км 3/1 1000 м
[Sc Ac trans]
+7.7 +4.7 81 +7 +7 1016.2 990.7
21 15.06 Ю 2 50 км 3/3 1000 м
[Sc]
+16.5 +5.7 49 +17 +20 1015.7 990.9 +3.9
00 16.06 Ю 2 50 км 3/3 1000 м
[Sc]
+21.8 +1.3 26 +21 +30 комфорт 1014.5 990.2
03 16.06 Ю 2 50 км 4/4 1000 м
[Cu Sc]
+25.0 +2.6 23 +24 +32 комфорт 1012.6 988.6
06 16.06 Ю 3 50 км 8/5 1000 м
[Cu med, cong Ci fib]
+25.8 +0.8 19 +24 +27 комфорт 1011.0 987.1
09 16.06 Ю 3 50 км 9/1 1000 м
[Cu med, cong Ci fib]
+22.2 +1.4 25 +22 +22 комфорт 1011.6 987.4 +26.0
12 16.06 штиль 0 50 км 8/1 1000 м
[Sc Ci fib]
+10.7 +5.5 70 +10 +10 1013.4 988.2
15 16.06 Ю 3 50 км 9/3 1000 м
[Sc Ac trans Ci fib]
+13.9 +3.2 48 +13 +13 1014.1 989.1
18 16.06 В 1 20 км слаб. ливневой дождь 10/5 1000 м
[Cb calv Ac trans Cs]
+10.3 +8.7 90 +10 +10 1015.0 989.8
21 16.06 Ю 3 50 км {ливн. осадки} 3/1 1000 м
[Cu med, cong Ac trans]
+13.7 +5.0 56 +13 +16 1015.2 990.2 +7.3 0.9
00 17.06 ЮВ 4 50 км {ливн. осадки} 5/3 1000 м
[Cu hum Ac trans]
+16.6 +2.4 38 +16 +21 1014.7 989.9
03 17.06 ЮВ 3 50 км 5/3 1000 м
[Cu hum Ac trans Ci fib]
+19.2 +1.4 30 +20 +26 1013.3 988.8
06 17.06 Ю 3 50 км 9/0
[Ac trans Ci fib]
+16.9 +0.4 33 +17 +20 1014.1 989.4
09 17.06 Ю 1 50 км 10/6 1000 м
[Cb calv Ac und]
+14.3 +2.6 45 +15 +15 1014.5 989.5 +19.6
12 17.06 штиль 0 50 км 10/6 1000 м
[Cb calv Ac und]
+11.1 +5.9 70 +11 +11 1014.9 989.7
15 17.06 СЗ 1 50 км 10/4 1000 м
[Cb calv Ac und]
+8.1 +5.7 85 +7 +7 1014.6 989.1
18 17.06 С 1 50 км 10/0
[Ac und]
+7.9 +5.1 82 +7 +7 1014.0 988.5
21 17.06 штиль 0 50 км 10/3 1000 м
[Sc Ac und]
+11.5 +6.7 72 +11 +12 1013.2 988.1 +6.1
00 18.06 ЮВ 1 50 км в посл. час дождь 10/3 1000 м
[Sc As op]
+14.1 +9.4 73 +15 +16 1013.0 988.1
03 18.06 С 3 20 км в посл. час дождь 10/5 1000 м
[Sc As op]
+14.3 +9.7 74 +13 +14 1012.0 987.2
06 18.06 С 3 50 км {дождь} 10/5 1000 м
[Sc Ac und]
+15.5 +9.0 65 +15 +16 1011.2 986.5
09 18.06 С 3 50 км 10/6 1000 м
[Sc Ac trans]
+15.1 +9.5 69 +14 +15 1010.5 985.8 +16.2 0.3
12 18.06 С 3 50 км {ливн. осадки} 9/6 1000 м
[Cb calv Ac trans]
+14.5 +9.8 73 +14 +14 1010.5 985.8
15 18.06 СВ 3 50 км 8/4 1000 м
[Sc Ac trans]
+14.2 +9.6 74 +13 +13 1010.0 985.2
18 18.06 СЗ 1 50 км 8/4 1000 м
[Sc Ac trans Ci fib]
+13.5 +9.7 78 +14 +14 1010.0 985.2
21 18.06 СВ 3 50 км 10/4 1000 м
[Sc Ac und]
+16.3 +10.2 67 +16 +17 1009.5 984.9 +13.1 0.0
00 19.06 С 4 50 км 9/5 1000 м
[Cu Sc Ci fib]
+18.3 +10.4 60 +18 +22 1009.1 984.7
03 19.06 С 4 50 км 9/6 1000 м
[Cu Sc Ac trans]
+19.3 +10.4 56 +20 +22 1008.4 984.1
06 19.06 СВ 1 50 км 10/5 1000 м
[Sc Ac und]
+18.3 +12.1 67 +20 +21 1008.3 983.9
09 19.06 СЗ 1 50 км {ливн. осадки} 9/4 1000 м
[Cb calv Ac trans]
+17.9 +13.4 75 +19 +19 1008.2 983.8 +21.9 0.0
12 19.06 С 2 50 км {ливн. осадки} 10/8 1000 м
[Cb calv Ac und]
+16.6 +12.7 78 +17 +17 1008.4 983.9
15 19.06 С 1 20 км 10/8 1000 м
[Cb calv Ac und]
+15.7 +12.5 81 +16 +16 1008.5 983.9
18 19.06 С 1 20 км {ливн. осадки} 10/6 1000 м
[Cb calv Ac und]
+14.6 +12.2 86 +15 +15 1008.8 984.1
21 19.06 штиль 0 20 км в посл. час ливневой дождь 9/6 1000 м
[Cb calv Ac trans]
+16.0 +13.1 83 +16 +17 1008.7 984.2 +14.1 0.3

 

Местоположение метеостанции Сеймчан (Магаданская область, Россия): широта 62.91 долгота 152.40 высота над уровнем моря 210 м.

В архиве по умолчанию представлена погода в Сеймчане за последнюю неделю. Архивные данные за месяц целиком и за предыдущие месяцы, начиная с января 2011 года, Вы можете получить, выбрав интересующий диапазон дат из раскрывающегося списка и нажав кнопку "Ввод!".


*Определитесь, кто Вы:
робот инопланетянин человек

Внимание! Время в таблицах - всемирное. Для получения местного времени необходимо прибавить поправку, которая равна 11 ч.

Смотрите также архив погоды в соседних городах и на ближайших метеорологических станциях:

Погода в Среднекане (Магаданская область, Россия) (51 км)
Погода в Совхозе Эльген (Магаданская область, Россия) (92 км)
Погода в Усть-Бохапче (Магаданская область, Россия) (129 км)
Погода в Балыгычане (Магаданская область, Россия) (140 км)
Погода в Ягодной (Магаданская область, Россия) (150 км)
Погода на Озере Джека Лондона (Магаданская область, Россия) (175 км)
Погода в Омсукчане (Магаданская область, Россия) (179 км)
Погода в Талой (Магаданская область, Россия) (198 км)
Погода в Коркодоне (Магаданская область, Россия) (217 км)
Погода в Сусумане (Магаданская область, Россия) (219 км)

Пояснения к столбцам:

Ветер - указаны скорость ветра в м/с - средняя за 10 мин, порывы в срок и между сроками (в фигурных скобках) и направление, откуда дует ветер: С - северный, СВ - северо-восточный, В - восточный, ЮВ - юго-восточный, Ю - южный, ЮЗ - юго-западный, З - западный, СЗ - северо-западный.
Видимость - горизонтальная дальность видимости в метрах или километрах. При видимости от 1 до 10 км при отсутствии осадков обычно наблюдается дымка, при ухудшении видимости до 1 км и менее - туман. В сухую погоду видимость может ухудшаться дымом, пылью или мглою.
Явления - указаны атмосферные явления, наблюдавшиеся в срок или в последний час перед сроком; фигурными скобками обозначены явления, наблюдавшиеся между сроками (за 1-3 часа до срока); квадратными скобками обозначены град или гололедные отложения с указанием их диаметра в мм.
Облачность - указаны через наклонную черту общая и нижняя облачность в баллах и высота нижней границы облаков в метрах; квадратными скобками обозначены формы облаков: Ci - перистые, Cs - перисто-слоистые, Cc - перисто-кучевые, Ac - высококучевые, As - высокослоистые, Sc - слоисто-кучевые, Ns - слоисто-дождевые, Cu - кучевые, Cb - кучево-дождевые. Подробнее классификацию облаков см. в Атласе облаков (PDF).
T - Температура воздуха - температура, измеренная на высоте 2 м над землей.
Td - Температура точки росы - температура, при понижении до которой содержащийся в воздухе водяной пар достигнет насыщения.
f - Относительная влажность воздуха - влажноcть воздуха, измеренная на высоте 2 м над землей.
Te - Эффективная температура - температура, которую ощущает одетый по сезону человек в тени. Характеристика душности погоды. При расчете учитывается влияние влажности воздуха и скорости ветра на теплоощущения человека.
Tes - Эффективная температура на солнце - температура, которую ощущает человек, с поправкой на солнечный нагрев. Характеристика знойности погоды. Зависит от высоты солнца над горизонтом, облачности и скорости ветра. Ночью, в пасмурную погоду, а также при ветре 12 м/с и более поправка равна нулю.
P - Атмосферное давление - приведенное к уровню моря атмосферное давление.
Po - Атмосферное давление - измеренное на уровне метеостанции атмосферное давление.
Tmin - Минимальная температура - минимум температуры воздуха на высоте 2 м над землей.
Tmax - Максимальная температура - максимум температуры воздуха на высоте 2 м над землей.
R - Количество осадков - Количество выпавших осадков за период времени, мм. При наведении курсора мыши на число - период времени, за который выпало указанное количество осадков.
R24 - Количество осадков - Количество выпавших осадков за 24 часа, мм.
S - Снежный покров - Высота снежного покрова, см. При наведении курсора мыши на число - состояние снежного покрова и степень покрытия местности в баллах.